Flag for U.S.A. Weather past 2 weeks in St. George, Utah, U.S.A.

Now
63 °F

Clear.


Feels Like: 63 °F
Forecast: 65 / 89 °F
Wind: 9 mph from Northeast

Location: Saint George

Current Time: Aug 27, 2014 at 7:00:47 AM

Latest Report: Aug 27, 2014 at 6:35 AM


Visibility: 10 mi

Pressure: 30.17 "Hg

Humidity: 73%

Dew point: 54 °F

Location of St. GeorgeLocation

Historic Weather in St. George — Graph

°F

St. George temperature yesterday

Maximum temperature yesterday: 90 °F (at 1:55 PM)
Minimum temperature yesterday: 64 °F (at 9:15 PM)
Average temperature yesterday: 78 °F

Past Weeks' High & Low Weather Summary

 TemperatureHumidityPressure
High102 °F (Aug 17, 4:35 PM)88% (Aug 19, 10:55 AM)30.17 "Hg (Aug 19, 10:55 AM)
Low64 °F (Aug 20, 7:15 AM)10% (Aug 17, 6:55 PM)29.82 "Hg (Aug 24, 7:15 PM)
Average80 °F40%29.99 "Hg
* Reported Aug 12 5:15 AM — Aug 27 5:35 AM, St. George, Weather by CustomWeather, © 2014

Note: Actual official high and low records may vary slightly from our data, if they occured in-between our weather recording intervals... More about our weather records

Advertising

St. George weather history for previous 24 hours

 ConditionsComfort  
Time TempWeatherWind HumidityBarometerVisibility
5:35 AM
Aug 27
64 °FClear.5 mph64%30.15 "Hg10 mi
5:15 AM64 °FClear.6 mph68%30.16 "Hg10 mi
4:55 AM64 °FClear.5 mph64%30.16 "Hg10 mi
4:35 AM64 °FClear.7 mph64%30.15 "Hg10 mi
4:15 AM64 °FClear.10 mph60%30.15 "Hg10 mi
3:55 AM64 °FClear.10 mph64%30.15 "Hg10 mi
3:35 AM64 °FClear.10 mph60%30.16 "Hg10 mi
3:15 AM64 °FClear.6 mph64%30.16 "Hg10 mi
2:35 AM64 °FClear.3 mph64%30.16 "Hg10 mi
2:15 AM64 °FClear.8 mph64%30.16 "Hg10 mi
1:55 AM64 °FClear.7 mph64%30.15 "Hg10 mi
1:35 AM64 °FClear.7 mph68%30.14 "Hg10 mi
1:15 AM64 °FClear.5 mph68%30.14 "Hg10 mi
12:55 AM66 °FClear.No wind60%30.13 "Hg10 mi
12:35 AM66 °FClear.No wind64%30.13 "Hg10 mi
12:15 AM66 °FPassing clouds.7 mph60%30.13 "Hg10 mi
11:55 PM
Aug 26
66 °FOvercast.8 mph60%30.13 "Hg10 mi
11:35 PM68 °FPassing clouds.7 mph56%30.12 "Hg10 mi
11:15 PM68 °FClear.13 mph53%30.12 "Hg10 mi
10:55 PM68 °FPassing clouds.15 mph56%30.11 "Hg10 mi
10:35 PM68 °FThundershowers. Passing clouds.15 mph56%30.11 "Hg10 mi
10:15 PM64 °FThundershowers. Partly cloudy.13 mph73%30.12 "Hg10 mi
9:55 PM64 °FThunderstorms. Partly cloudy.12 mph73%30.13 "Hg10 mi
9:35 PM64 °FThunderstorms. Mostly cloudy.21 mph68%30.11 "Hg10 mi
9:15 PM64 °FThunderstorms. Mostly cloudy.18 mph68%30.08 "Hg10 mi
8:55 PM70 °FThunderstorms. Overcast.17 mph60%30.04 "Hg10 mi
8:35 PM72 °FThunderstorms. Overcast.23 mph53%30.02 "Hg10 mi
8:15 PM75 °FThunderstorms. Overcast.24 mph50%29.98 "Hg9 mi
7:55 PM81 °FThunderstorms. Partly sunny.15 mph34%29.96 "Hg9 mi
7:35 PM81 °FSunny.15 mph34%29.95 "Hg10 mi
7:15 PM82 °FSunny.10 mph32%29.95 "Hg10 mi
6:55 PM84 °FSunny.12 mph29%29.95 "Hg10 mi
6:35 PM82 °FSunny.14 mph32%29.95 "Hg10 mi
6:15 PM82 °FPassing clouds.16 mph32%29.95 "Hg10 mi
5:55 PM82 °FThundershowers. Sunny.14 mph35%29.96 "Hg10 mi
5:35 PM81 °FPassing clouds.21 mph39%29.96 "Hg10 mi
5:15 PM84 °FScattered clouds.18 mph33%29.96 "Hg10 mi
4:55 PM88 °FPassing clouds.16 mph27%29.96 "Hg10 mi
4:35 PM86 °FPassing clouds.6 mph29%29.97 "Hg10 mi
3:55 PM82 °FPassing clouds.5 mph35%29.97 "Hg10 mi
3:35 PM84 °FThunderstorms. Partly sunny.21 mph33%29.98 "Hg10 mi
2:55 PM90 °FPartly sunny.22 mph22%29.98 "Hg10 mi
2:35 PM90 °FScattered clouds.21 mph24%29.99 "Hg10 mi
2:15 PM90 °FSunny.22 mph26%29.99 "Hg10 mi
1:55 PM90 °FPassing clouds.18 mph27%30.00 "Hg10 mi
1:35 PM88 °FScattered clouds.25 mph31%30.01 "Hg10 mi
1:15 PM88 °FPassing clouds.23 mph31%30.02 "Hg10 mi
12:55 PM84 °FSunny.12 mph31%30.04 "Hg10 mi
12:35 PM84 °FSunny.10 mph31%30.04 "Hg10 mi
11:55 AM82 °FSunny.9 mph35%30.04 "Hg10 mi
11:35 AM84 °FSunny.12 mph33%30.04 "Hg10 mi
11:15 AM82 °FSunny.10 mph35%30.05 "Hg10 mi
10:55 AM84 °FSunny.13 mph35%30.05 "Hg10 mi
10:35 AM82 °FSunny.13 mph37%30.05 "Hg10 mi
10:15 AM82 °FSunny.10 mph35%30.04 "Hg10 mi
9:55 AM81 °FPassing clouds.8 mph39%30.05 "Hg10 mi
9:35 AM79 °FScattered clouds.8 mph42%30.05 "Hg10 mi
9:15 AM77 °FSunny.3 mph42%30.06 "Hg10 mi
8:55 AM77 °FSunny.9 mph42%30.06 "Hg10 mi
8:35 AM75 °FSunny.6 mph47%30.05 "Hg10 mi
8:15 AM75 °FSunny.7 mph47%30.05 "Hg10 mi
7:55 AM73 °FClear.6 mph50%30.04 "Hg10 mi
7:35 AM73 °FClear.5 mph50%30.04 "Hg10 mi
7:15 AM73 °FClear.5 mph50%30.03 "Hg10 mi
Weather by CustomWeather, © 2014

See weather overviewHow to use our weather pages